Simultaneous Nadir Overpasses (SNOs) Predictions

Prediction of SNOs between GOES-16 and METOP-B Satellite Orbit:

Table of predicted SNOs for the next 14.0 days since TLE Epoch: 12/9/2022
Index Date Time (GOES-16) GOES-16 Lat,Lon METOP-B Lat,Lon Distance(km) Time Diff (sec)
1 12/10/2022 02:12:42 0.05, -75.18 0.99, -71.09 466.18 80
2 12/11/2022 14:34:15 -0.04, -75.21 0.06, -75.65 50.71 80
3 12/14/2022 02:32:37 0.04, -75.20 0.02, -75.25 6.31 80
4 12/16/2022 14:28:10 -0.03, -75.25 -0.12, -74.83 48.03 80
5 12/18/2022 02:49:52 0.03, -75.25 -0.88, -79.43 475.93 80
6 12/19/2022 02:26:32 0.03, -75.26 0.21, -74.43 94.40 80
7 12/20/2022 14:45:25 -0.03, -75.30 0.82, -78.99 421.00 80
8 12/21/2022 14:27:26 -0.03, -75.31 -0.33, -74.00 149.49 80
9 12/23/2022 02:46:26 0.02, -75.31 -0.72, -78.59 374.21 80
